Location: Arlington
(40.6323°N, 74.1651°W)
Time: 04:46:39
(UTC+00:00)

NOSS 2-3 (D) - Pass Details

Date: 22 November 2019
Orbit: 597 x 1615 km, 63.4° (Epoch: 30 November)

Event Time Altitude Azimuth Distance (km) Brightness Sun altitude
Rises 21:59:58 0° 224° (SW) 2,827 8.4 -5.3°
Reaches altitude 10° 22:02:08 10° 229° (SW) 1,950 7.5 -5.7°
Maximum altitude 22:06:22 58° 308° (NW) 763 4.2 -6.4°
Drops below altitude 10° 22:11:17 10° 28° (NNE) 2,255 6.0 -7.3°
Enters shadow 22:13:20 - 32° (NNE) 3,071 6.6 -7.7°
